TimeCDT,TemperatureF,Dew PointF,Humidity,Sea Level PressureIn,VisibilityMPH,Wind Direction,Wind SpeedMPH,Gust SpeedMPH,PrecipitationIn,Events,Conditions,WindDirDegrees,DateUTC
12:52 AM,52.0,48.9,89,30.01,10.0,Calm,Calm,-,N/A,,Clear,0,2013-09-21 05:52:00
1:52 AM,51.1,48.9,92,30.01,10.0,Calm,Calm,-,N/A,,Clear,0,2013-09-21 06:52:00
2:52 AM,50.0,48.0,93,30.01,10.0,Calm,Calm,-,N/A,,Clear,0,2013-09-21 07:52:00
3:52 AM,50.0,46.9,89,30.01,9.0,Calm,Calm,-,N/A,,Clear,0,2013-09-21 08:52:00
4:52 AM,48.9,46.9,93,30.01,10.0,Calm,Calm,-,N/A,,Clear,0,2013-09-21 09:52:00
5:52 AM,48.9,46.9,93,30.02,10.0,Calm,Calm,-,N/A,,Clear,0,2013-09-21 10:52:00
6:52 AM,48.9,46.0,90,30.03,10.0,Calm,Calm,-,N/A,,Clear,0,2013-09-21 11:52:00
7:52 AM,50.0,46.9,89,30.04,10.0,Calm,Calm,-,N/A,,Clear,0,2013-09-21 12:52:00
8:52 AM,60.1,54.0,80,30.05,10.0,Calm,Calm,-,N/A,,Clear,0,2013-09-21 13:52:00
9:52 AM,66.0,54.0,65,30.05,10.0,Calm,Calm,-,N/A,,Clear,0,2013-09-21 14:52:00
10:52 AM,70.0,51.1,51,30.06,10.0,Variable,4.6,-,N/A,,Clear,0,2013-09-21 15:52:00
11:52 AM,72.0,50.0,46,30.05,10.0,Variable,3.5,-,N/A,,Clear,0,2013-09-21 16:52:00
12:52 PM,75.0,48.9,40,30.02,10.0,North,5.8,-,N/A,,Clear,360,2013-09-21 17:52:00
1:52 PM,75.0,48.9,40,30.01,10.0,ENE,4.6,-,N/A,,Clear,70,2013-09-21 18:52:00
2:52 PM,77.0,50.0,39,29.98,10.0,ENE,3.5,-,N/A,,Clear,60,2013-09-21 19:52:00
3:52 PM,78.1,51.1,39,29.96,10.0,Calm,Calm,-,N/A,,Clear,0,2013-09-21 20:52:00
4:52 PM,78.1,51.1,39,29.95,10.0,Calm,Calm,-,N/A,,Clear,0,2013-09-21 21:52:00
5:52 PM,77.0,51.1,40,29.94,10.0,Calm,Calm,-,N/A,,Clear,0,2013-09-21 22:52:00
6:52 PM,70.0,59.0,68,29.94,10.0,Calm,Calm,-,N/A,,Clear,0,2013-09-21 23:52:00
7:52 PM,62.1,57.9,86,29.94,10.0,Calm,Calm,-,N/A,,Clear,0,2013-09-22 00:52:00
8:52 PM,60.1,57.0,90,29.94,10.0,Calm,Calm,-,N/A,,Clear,0,2013-09-22 01:52:00
9:52 PM,57.9,55.0,90,29.95,10.0,Calm,Calm,-,N/A,,Clear,0,2013-09-22 02:52:00
10:52 PM,57.0,54.0,89,29.95,10.0,Calm,Calm,-,N/A,,Clear,0,2013-09-22 03:52:00
11:52 PM,55.0,53.1,93,29.95,10.0,Calm,Calm,-,N/A,,Clear,0,2013-09-22 04:52:00